Location: Krakow
(50.0830°N, 19.9170°E)
Time: 04:53:51
(UTC+02:00)

Tiros 1 - Pass Details

Date: 13 February 2023
Orbit: 627 x 662 km, 48.4° (Epoch: 25 March)

Event Time Altitude Azimuth Distance (km) Brightness Sun altitude
Rises 00:42:41 0° 278° (W) 2,913 - -52.1°
Reaches altitude 10° 00:45:01 10° 274° (W) 2,006 - -52.0°
Maximum altitude 00:49:31 54° 198° (SSW) 770 - -51.8°
Drops below altitude 10° 00:54:02 10° 121° (ESE) 2,015 - -51.5°
Sets 00:56:23 0° 117° (ESE) 2,927 - -51.3°
